Location: Newark
(46.1292°N, 1.0086°W)
Time: 20:33:27
(UTC+00:00)

Vanguard 3 - Pass Details

Date: 19 November 2019
Orbit: 508 x 3263 km, 33.3° (Epoch: 11 December)

Event Time Altitude Azimuth Distance (km) Brightness Sun altitude
Rises 12:17:07 0° 211° (SSW) 6,625 12.9 24.1°
Reaches altitude 10° 12:21:57 10° 203° (SSW) 5,870 13.2 24.0°
Maximum altitude 12:37:41 33° 148° (SSE) 4,521 11.9 23.5°
Drops below altitude 10° 12:52:53 10° 93° (E) 5,714 11.4 22.8°
Sets 12:57:26 0° 85° (E) 6,439 11.5 22.6°
